FW2830 Weather Reports


Display with metric or nautical units.
time (UTC)temp
F
wind
direction
speed
MPH
gust
MPH
rain 1hr
in
rain 24hr
in
rain mn
in
humidity
%
barometer
mb
20260508011542 50 211 2.0 10.0 0.00 1.12 1.12 100 1001.2
20260508010037 50 222 3.0 11.0 0.00 1.12 1.12 100 1001.4
20260508004536 50 210 5.0 10.0 0.00 1.12 1.12 100 1001.4
20260508003053 50 207 4.0 9.0 0.00 1.12 1.12 100 1001.5
20260508001534 50 215 4.0 8.0 0.00 1.12 1.12 100 1001.6
20260508000034 50 230 5.0 10.0 0.00 1.12 1.12 100 1001.7
20260507234531 50 204 6.0 10.0 0.00 1.12 1.12 100 1001.8
20260507233034 50 197 3.0 10.0 0.00 1.12 1.12 100 1001.5
20260507231530 50 210 4.0 15.0 0.00 1.12 1.12 100 1002.0
20260507230028 51 217 6.0 11.0 0.00 1.12 1.12 100 1001.8
20260507224525 51 208 5.0 16.0 0.00 1.12 1.12 100 1002.0
20260507223022 51 218 3.0 12.0 0.00 1.12 1.12 100 1001.8
20260507221523 51 206 4.0 15.0 0.01 1.12 1.12 100 1002.1
20260507220020 51 250 4.0 10.0 0.02 1.12 1.12 100 1002.3
20260507214519 51 232 4.0 12.0 0.05 1.12 1.12 100 1002.2
20260507213016 50 229 5.0 10.0 0.08 1.12 1.12 100 1002.0
20260507211516 50 204 5.0 11.0 0.17 1.11 1.11 100 1001.7
20260507210012 50 190 3.0 10.0 0.25 1.10 1.10 100 1001.8
20260507204509 50 195 3.0 11.0 0.34 1.07 1.07 100 1002.7
20260507203012 50 198 3.0 8.0 0.45 1.04 1.04 100 1002.9
20260507201504 50 196 1.0 10.0 0.46 0.94 0.94 99 1003.4
20260507200001 51 194 6.0 14.0 0.46 0.84 0.84 99 1003.8
20260507194603 51 191 5.0 13.0 0.44 0.73 0.73 99 1004.2
20260507193057 52 235 4.0 13.0 0.42 0.59 0.59 99 1004.6
20260507191556 53 225 6.0 14.0 0.34 0.48 0.48 98 1004.5
20260507190054 54 233 8.0 17.0 0.25 0.39 0.39 98 1004.6
20260507184553 54 212 7.0 14.0 0.15 0.28 0.28 97 1004.6
20260507183052 54 185 5.0 11.0 0.03 0.17 0.17 96 1004.8
20260507181551 55 183 6.0 18.0 0.01 0.14 0.14 94 1004.6
20260507180053 56 168 7.0 18.0 0.00 0.13 0.13 92 1004.4
20260507174550 56 195 8.0 17.0 0.00 0.13 0.13 92 1004.5
20260507173048 56 218 7.0 17.0 0.00 0.13 0.13 93 1004.6
20260507171545 56 189 5.0 10.0 0.00 0.13 0.13 93 1005.1
20260507170043 56 196 7.0 16.0 0.00 0.13 0.13 92 1005.4
20260507164540 56 175 10.0 22.0 0.00 0.13 0.13 92 1005.8
20260507163039 56 175 8.0 28.0 0.00 0.13 0.13 92 1005.9
20260507161535 57 180 9.0 16.0 0.00 0.13 0.13 92 1006.5
20260507160038 56 137 8.0 22.0 0.00 0.13 0.13 92 1006.9
20260507154532 57 204 10.0 21.0 0.00 0.13 0.13 92 1007.3
20260507153034 57 156 10.0 25.0 0.00 0.13 0.13 92 1007.5
20260507151528 57 217 10.0 24.0 0.00 0.13 0.13 93 1007.9
20260507150028 57 197 8.0 25.0 0.00 0.13 0.13 94 1007.8
20260507144522 56 192 10.0 26.0 0.00 0.13 0.13 96 1008.2
20260507143023 55 190 6.0 21.0 0.00 0.13 0.13 97 1008.6
20260507141516 55 220 8.0 24.0 0.00 0.13 0.13 97 1009.3
20260507140025 55 222 8.0 19.0 0.00 0.13 0.13 97 1009.2
20260507134515 55 211 9.0 20.0 0.00 0.13 0.13 97 1009.3
20260507133014 56 201 8.0 20.0 0.00 0.13 0.13 98 1009.8
20260507131513 56 204 11.0 23.0 0.00 0.13 0.13 99 1009.8
20260507130012 55 222 7.0 17.0 0.00 0.13 0.13 99 1009.4
20260507124514 55 204 7.0 17.0 0.01 0.13 0.13 100 1009.2
20260507123006 54 204 10.0 27.0 0.01 0.13 0.13 100 1009.8
20260507121503 54 220 7.0 16.0 0.01 0.13 0.13 100 1010.0
20260507120100 53 208 6.0 22.0 0.01 0.13 0.13 100 1010.7
20260507114558 53 210 4.0 11.0 0.00 0.13 0.13 100 1011.2
20260507113058 53 238 8.0 13.0 0.01 0.13 0.13 100 1011.3
20260507111555 53 235 8.0 23.0 0.01 0.13 0.13 100 1011.8
20260507110056 52 247 6.0 13.0 0.01 0.13 0.13 100 1011.4
20260507104554 52 210 6.0 14.0 0.01 0.13 0.13 100 1011.7
20260507103051 53 220 6.0 11.0 0.02 0.12 0.12 100 1012.1
20260507101602 53 233 6.0 20.0 0.04 0.12 0.12 100 1012.0
20260507100047 53 185 6.0 10.0 0.04 0.12 0.12 100 1011.4
20260507094555 53 214 5.0 11.0 0.06 0.12 0.12 100 1012.0
20260507093043 52 214 7.0 13.0 0.02 0.08 0.08 100 1012.7
20260507091555 52 193 3.0 9.0 0.04 0.08 0.08 100 1012.3
20260507090100 51 217 6.0 16.0 0.06 0.08 0.08 100 1012.3
20260507084538 51 208 4.0 8.0 0.06 0.06 0.06 100 1012.4
20260507083041 51 212 2.0 7.0 0.06 0.06 0.06 100 1012.3
20260507081549 51 212 2.0 7.0 0.04 0.04 0.04 99 1012.7
20260507080035 52 212 3.0 10.0 0.02 0.02 0.02 99 1012.6
20260507074538 52 233 6.0 14.0 0.00 0.00 0.00 100 1013.2
20260507073031 53 224 6.0 10.0 0.00 0.00 0.00 100 1013.4
20260507071529 52 192 4.0 14.0 0.00 0.00 0.00 100 1013.5
20260507070027 52 214 5.0 13.0 0.00 0.00 0.00 100 1013.6
20260507064526 51 235 3.0 8.0 0.00 0.00 0.00 99 1013.5
20260507063023 51 208 3.0 9.0 0.00 0.00 0.00 99 1013.9
20260507061530 51 206 2.0 8.0 0.00 0.00 0.00 99 1014.0
20260507060028 51 210 4.0 9.0 0.00 0.00 0.00 98 1014.3
20260507054520 52 196 4.0 13.0 0.00 0.00 0.00 99 1014.5
20260507053017 52 209 4.0 10.0 0.00 0.00 0.00 98 1014.5
20260507051515 52 219 5.0 14.0 0.00 0.00 0.00 98 1014.9
20260507050110 52 231 6.0 15.0 0.00 0.00 0.00 97 1015.3
20260507044517 52 221 6.0 15.0 0.00 0.00 0.00 97 1015.5
20260507043004 52 222 5.0 13.0 0.00 0.00 0.00 97 1015.8
20260507041501 52 219 6.0 14.0 0.00 0.00 0.00 97 1016.1
20260507040100 52 226 6.0 16.0 0.00 0.00 0.00 96 1016.2
20260507034602 52 213 5.0 13.0 0.00 0.00 0.00 96 1016.4
20260507033053 52 219 7.0 17.0 0.00 0.00 0.00 96 1016.8
20260507031551 53 222 8.0 15.0 0.00 0.00 0.00 96 1016.8
20260507030052 52 206 7.0 17.0 0.00 0.00 0.00 96 1016.8
20260507024546 52 216 6.0 16.0 0.00 0.00 0.00 95 1016.9
20260507023046 52 243 5.0 10.0 0.00 0.00 0.00 94 1017.0
20260507021550 52 220 9.0 16.0 0.00 0.00 0.00 94 1017.1
20260507020051 52 229 6.0 15.0 0.00 0.00 0.00 94 1017.2
20260507014558 52 223 9.0 16.0 0.00 0.00 0.00 94 1017.4
20260507013044 52 227 7.0 16.0 0.00 0.00 0.00 93 1017.4